Погода в Ломбок-Мангсит

Индонезия     8°29′18″S   116°02′30″E
темп.,
°C
ветер,
м/с
пор.,
м/с
влажн.,
%
обл.,
%
осадки,
мм/ч
давл.,
гПа
погр.,
м
19 июня, сб
сб1923:00+27вюв3376100 0.0 1013284
02:00+26вюв337842 0.1 1012313
05:00+26юв3379100 0.0 1011270
08:00+26юв227787 0.0 1013304
11:00+27з22765 0.0 1013246
14:00+27ссз117111 0.1 1010243
17:00+28вюв236930 0.6 1010618
20:00+27юв568232 1.9 1012374
20 июня, вс
вс2023:00+27вюв33796 1.4 1012285
02:00+26вюв22765 1.6 1011219
05:00+26юв44795 0.0 1010245
08:00+26вюв22775 0.0 1012273
11:00+27зюз117579 0.0 1012203
14:00+28ссз336881 0.2 1009318
17:00+28ссз33705 0.7 1010724
20:00+28ссв22705 0.8 1011501
21 июня, пн
пн2123:00+27в21794 0.8 1012267
02:00+26вюв32795 2.1 1011208
05:00+26юв327828 0.0 1010276
08:00+26вюв1175100 0.1 1012237
11:00+27сз117399 0.0 1012278
14:00+28с4471100 0.1 1009586
17:00+28ссв6672100 0.3 1009693
20:00+28ссв557546 0.5 1011503
22 июня, вт
вт2223:00+27св447651 1.1 1012434
02:00+26в227878 2.7 1011232
05:00+26юв228069 1.1 1011155
08:00+26юв3379100 4.9 1013239
11:00+27ююз337583 3.2 1013298
14:00+27юз447498 5.2 1011372
17:00+28ю4473100 1.9 1011516
20:00+27ююв567794 2.7 1013524
23 июня, ср
ср2323:00+26ююв568091 0.3 1013436
02:00+26ююв568399 0.6 1012404
05:00+26ююв678467 0.1 1012517
08:00+26ююв6882100 0.1 1013583
11:00+28ююв6771100 0.0 1013977
14:00+29ю7769100 0.1 10101104
17:00+28ююв887185 0.1 1010971
20:00+27юв7981100 0.3 1012734